When you browse on this site, cookies collect data to enhance your experience and personalize the content and advertising you see.
Visit our Privacy Policy to learn more. By continuing to use the site, you agree to this use of cookies and data.
  • Em Portugal
  • Lista de países
  • Para 7 dias
  • Temperatura da água
  • Mapa do tempo
  • Widgets de tempo
  • user-avatar
    Iniciar Sessão

    Previsão horária em Durres

    Hoje, 3 Junho, Quarta-feira

    Tempo Temperatura Precipitação Vento Pressão Humidade
    00:00 +14°C° 0 mm 3 m/s 756 mmHg 77%
    01:00 +14°C° 0 mm 3 m/s 756 mmHg 79%
    02:00 +13°C° 0 mm 3 m/s 755 mmHg 78%
    03:00 +13°C° 0 mm 4 m/s 755 mmHg 78%
    04:00 +13°C° 0 mm 4 m/s 755 mmHg 77%
    05:00 +15°C° 0 mm 4 m/s 755 mmHg 71%
    06:00 +18°C° 0 mm 3 m/s 755 mmHg 65%
    07:00 +19°C° 0 mm 3 m/s 755 mmHg 59%
    08:00 +21°C° 0 mm 3 m/s 755 mmHg 54%
    09:00 +23°C° 0 mm 2 m/s 755 mmHg 50%
    10:00 +25°C° 0 mm 1 m/s 755 mmHg 46%
    11:00 +25°C° 0 mm 2 m/s 755 mmHg 44%
    12:00 +25°C° 0 mm 2 m/s 755 mmHg 43%
    13:00 +26°C° 0 mm 3 m/s 755 mmHg 42%
    14:00 +25°C° 0 mm 3 m/s 755 mmHg 45%
    15:00 +25°C° 0 mm 3 m/s 755 mmHg 47%
    16:00 +24°C° 0 mm 3 m/s 755 mmHg 50%
    17:00 +21°C° 0 mm 2 m/s 755 mmHg 57%
    18:00 +21°C° 0 mm 1 m/s 755 mmHg 65%
    19:00 +19°C° 0 mm 1 m/s 755 mmHg 73%
    20:00 +18°C° 0 mm 2 m/s 755 mmHg 74%
    21:00 +17°C° 0 mm 2 m/s 756 mmHg 74%
    22:00 +17°C° 0 mm 3 m/s 756 mmHg 75%
    23:00 +16°C° 0 mm 3 m/s 756 mmHg 74%

    Amanhã, 4 Junho, Quinta-feira

    Tempo Temperatura Precipitação Vento Pressão Humidade
    00:00 +15°C° 0 mm 4 m/s 756 mmHg 73%
    01:00 +15°C° 0 mm 4 m/s 756 mmHg 73%
    02:00 +15°C° 0 mm 4 m/s 756 mmHg 70%
    03:00 +15°C° 0 mm 5 m/s 756 mmHg 68%
    04:00 +14°C° 0 mm 5 m/s 756 mmHg 66%
    05:00 +16°C° 0 mm 5 m/s 756 mmHg 61%
    06:00 +19°C° 0 mm 5 m/s 756 mmHg 55%
    07:00 +21°C° 0 mm 6 m/s 756 mmHg 50%
    08:00 +23°C° 0 mm 6 m/s 756 mmHg 46%
    09:00 +26°C° 0 mm 6 m/s 756 mmHg 42%
    10:00 +27°C° 0 mm 6 m/s 756 mmHg 38%
    11:00 +28°C° 0 mm 7 m/s 756 mmHg 37%
    12:00 +28°C° 0 mm 9 m/s 756 mmHg 37%
    13:00 +28°C° 0 mm 10 m/s 756 mmHg 37%
    14:00 +28°C° 0 mm 10 m/s 756 mmHg 39%
    15:00 +27°C° 0 mm 11 m/s 756 mmHg 40%
    16:00 +27°C° 0 mm 11 m/s 756 mmHg 42%
    17:00 +24°C° 0 mm 11 m/s 756 mmHg 50%
    18:00 +22°C° 0 mm 11 m/s 756 mmHg 59%
    19:00 +19°C° 0 mm 11 m/s 756 mmHg 67%
    20:00 +18°C° 0 mm 11 m/s 756 mmHg 69%
    21:00 +17°C° 0 mm 11 m/s 757 mmHg 70%
    22:00 +17°C° 0 mm 10 m/s 757 mmHg 72%
    23:00 +16°C° 0 mm 9 m/s 757 mmHg 70%

    Depois de amanhã, 5 Junho, Sexta-feira

    Tempo Temperatura Precipitação Vento Pressão Humidade
    00:00 +16°C° 0 mm 8 m/s 757 mmHg 68%
    01:00 +16°C° 0 mm 8 m/s 756 mmHg 65%
    02:00 +16°C° 0 mm 7 m/s 756 mmHg 64%
    03:00 +15°C° 0 mm 7 m/s 756 mmHg 63%
    04:00 +15°C° 0 mm 7 m/s 756 mmHg 61%
    05:00 +17°C° 0 mm 7 m/s 756 mmHg 58%
    06:00 +18°C° 0 mm 8 m/s 756 mmHg 55%
    07:00 +21°C° 0 mm 8 m/s 756 mmHg 52%
    08:00 +22°C° 0.1 mm 8 m/s 755 mmHg 51%
    09:00 +22°C° 0.1 mm 8 m/s 755 mmHg 49%
    10:00 +23°C° 0.1 mm 8 m/s 755 mmHg 47%
    11:00 +24°C° 0 mm 10 m/s 755 mmHg 45%
    12:00 +27°C° 0 mm 11 m/s 754 mmHg 42%
    13:00 +28°C° 0 mm 12 m/s 754 mmHg 40%
    14:00 +24°C° 1.6 mm 12 m/s 754 mmHg 52%
    15:00 +21°C° 1.6 mm 12 m/s 754 mmHg 64%
    16:00 +18°C° 1.6 mm 12 m/s 754 mmHg 76%
    17:00 +17°C° 0.4 mm 11 m/s 754 mmHg 78%
    18:00 +17°C° 0.4 mm 10 m/s 755 mmHg 80%
    19:00 +17°C° 0.4 mm 9 m/s 755 mmHg 82%
    20:00 +17°C° 0.2 mm 8 m/s 755 mmHg 82%
    21:00 +17°C° 0.2 mm 8 m/s 755 mmHg 82%
    22:00 +17°C° 0.2 mm 7 m/s 755 mmHg 82%
    23:00 +17°C° 0.1 mm 6 m/s 755 mmHg 81%

    6 Junho, Sábado

    Tempo Temperatura Precipitação Vento Pressão Humidade
    00:00 +16°C° 0.1 mm 5 m/s 755 mmHg 79%
    01:00 +17°C° 0.1 mm 4 m/s 755 mmHg 78%
    02:00 +17°C° 0 mm 4 m/s 755 mmHg 78%
    03:00 +17°C° 0 mm 3 m/s 755 mmHg 77%
    04:00 +17°C° 0 mm 3 m/s 755 mmHg 77%
    05:00 +18°C° 0 mm 3 m/s 756 mmHg 71%
    06:00 +20°C° 0 mm 2 m/s 756 mmHg 66%
    07:00 +21°C° 0 mm 2 m/s 756 mmHg 60%
    08:00 +24°C° 0 mm 2 m/s 756 mmHg 55%
    09:00 +25°C° 0 mm 1 m/s 757 mmHg 50%
    10:00 +27°C° 0 mm 1 m/s 757 mmHg 45%
    11:00 +27°C° 0 mm 2 m/s 757 mmHg 47%
    12:00 +27°C° 0 mm 2 m/s 757 mmHg 49%
    13:00 +27°C° 0 mm 3 m/s 756 mmHg 51%
    14:00 +27°C° 0 mm 2 m/s 756 mmHg 53%
    15:00 +27°C° 0 mm 2 m/s 756 mmHg 55%
    16:00 +26°C° 0 mm 2 m/s 756 mmHg 58%
    17:00 +25°C° 0 mm 1 m/s 756 mmHg 64%
    18:00 +23°C° 0 mm 1 m/s 756 mmHg 70%
    19:00 +22°C° 0 mm 1 m/s 757 mmHg 75%
    20:00 +20°C° 0 mm 2 m/s 757 mmHg 76%
    21:00 +20°C° 0 mm 2 m/s 757 mmHg 77%
    22:00 +19°C° 0 mm 2 m/s 758 mmHg 77%
    23:00 +19°C° 0 mm 2 m/s 757 mmHg 79%

    7 Junho, Domingo

    Tempo Temperatura Precipitação Vento Pressão Humidade
    00:00 +18°C° 0 mm 2 m/s 757 mmHg 80%
    01:00 +18°C° 0 mm 2 m/s 757 mmHg 81%
    02:00 +18°C° 0 mm 2 m/s 757 mmHg 81%
    03:00 +17°C° 0 mm 2 m/s 757 mmHg 82%
    04:00 +17°C° 0 mm 2 m/s 757 mmHg 82%
    05:00 +19°C° 0 mm 2 m/s 757 mmHg 77%
    06:00 +21°C° 0 mm 2 m/s 757 mmHg 71%
    07:00 +22°C° 0 mm 3 m/s 758 mmHg 66%
    08:00 +25°C° 0 mm 3 m/s 758 mmHg 61%
    09:00 +26°C° 0 mm 3 m/s 758 mmHg 57%
    10:00 +27°C° 0 mm 3 m/s 758 mmHg 52%
    11:00 +28°C° 0 mm 3 m/s 758 mmHg 52%
    12:00 +28°C° 0 mm 3 m/s 758 mmHg 53%
    13:00 +28°C° 0 mm 3 m/s 758 mmHg 53%
    14:00 +27°C° 0 mm 3 m/s 758 mmHg 52%
    15:00 +27°C° 0 mm 3 m/s 758 mmHg 51%
    16:00 +27°C° 0 mm 3 m/s 757 mmHg 50%
    17:00 +26°C° 0 mm 4 m/s 758 mmHg 55%
    18:00 +23°C° 0 mm 4 m/s 758 mmHg 61%
    19:00 +22°C° 0 mm 4 m/s 758 mmHg 67%
    20:00 +21°C° 0 mm 3 m/s 758 mmHg 68%
    21:00 +21°C° 0 mm 3 m/s 759 mmHg 70%
    22:00 +20°C° 0 mm 3 m/s 759 mmHg 71%
    23:00 +20°C° 0 mm 3 m/s 759 mmHg 71%

    8 Junho, Segunda-feira

    Tempo Temperatura Precipitação Vento Pressão Humidade
    00:00 +19°C° 0 mm 3 m/s 758 mmHg 72%
    01:00 +19°C° 0 mm 2 m/s 758 mmHg 72%
    02:00 +19°C° 0 mm 2 m/s 758 mmHg 72%
    03:00 +19°C° 0 mm 3 m/s 758 mmHg 71%
    04:00 +18°C° 0 mm 3 m/s 758 mmHg 70%
    05:00 +20°C° 0 mm 3 m/s 758 mmHg 65%
    06:00 +22°C° 0 mm 3 m/s 758 mmHg 60%
    07:00 +25°C° 0 mm 3 m/s 758 mmHg 55%
    08:00 +26°C° 0 mm 3 m/s 758 mmHg 51%
    09:00 +27°C° 0 mm 3 m/s 758 mmHg 47%
    10:00 +29°C° 0 mm 4 m/s 757 mmHg 42%
    11:00 +29°C° 0 mm 4 m/s 757 mmHg 43%
    12:00 +29°C° 0 mm 5 m/s 757 mmHg 43%
    13:00 +30°C° 0 mm 5 m/s 757 mmHg 43%
    14:00 +29°C° 0 mm 5 m/s 757 mmHg 43%
    15:00 +29°C° 0 mm 5 m/s 757 mmHg 43%
    16:00 +29°C° 0 mm 5 m/s 756 mmHg 44%
    17:00 +27°C° 0 mm 4 m/s 756 mmHg 51%
    18:00 +25°C° 0 mm 4 m/s 756 mmHg 58%
    19:00 +23°C° 0 mm 4 m/s 756 mmHg 66%
    20:00 +22°C° 0.3 mm 4 m/s 757 mmHg 71%
    21:00 +21°C° 0.3 mm 5 m/s 757 mmHg 76%
    22:00 +20°C° 0.3 mm 6 m/s 757 mmHg 81%
    23:00 +20°C° 0.3 mm 5 m/s 757 mmHg 81%
    Mostrar mais